Weather History for KRAL - January, 2014

Change the Weather History Date:

Monday, January 27, 2014

  Actual Average Record
Temperature  
Mean Temperature 60 °F 55 °F  
Max Temperature 71 °F 67 °F 87 °F (1986)
Min Temperature 48 °F 44 °F 22 °F (1950)
Degree Days  
Heating Degree Days 5 10  
Month to date heating degree days 108 274  
Since 1 July heating degree days 496 800  
Cooling Degree Days 0 0  
Month to date cooling degree days 16 0  
Year to date cooling degree days 16 0  
Growing Degree Days 10 (Base 50)    
Moisture  
Dew Point 46 °F    
Average Humidity 62    
Maximum Humidity 86    
Minimum Humidity 38    
Precipitation  
Precipitation 0.00 in 0.02 in 1.67 in (1916)
Month to date precipitation 0.00 2.64  
Year to date precipitation 0.00 2.64  
Since 1 July precipitation 1.15  
Snow  
Snow 0.00 in - - ()
Month to date snowfall 0.0  
Year to date snowfall 0.0  
Since 1 July snowfall 0.0  
Snow Depth 0.00 in    
Sea Level Pressure  
Sea Level Pressure 30.03 in    
Wind  
Wind Speed 1 mph (West)    
Max Wind Speed 8 mph    
Max Gust Speed 13 mph    
Visibility 10 miles    
Events      
T = Trace of Precipitation, MM = Missing Value Source: NWS Daily Summary

Daily Weather History Graph

Daily Weather History Graph

Search for Another Location

Airport or City:

Trip Planner

Search our weather history database for the weather conditions in past years. The results will help you decide how hot, cold, wet, or windy it might be!

Date:

Astronomy

Jan. 27, 2014 Rise Set
Actual Time 6:49 AM PST 5:15 PM PST
Civil Twilight 6:23 AM PST 5:42 PM PST
Nautical Twilight 5:53 AM PST 6:12 PM PST
Astronomical Twilight 5:23 AM PST 6:41 PM PST
Moon 3:34 AM PST (1/27) 2:08 PM PST (1/27)
Length of Visible Light 11h 18m
Length of Day
10h 25m
Waning Crescent, 14% of the Moon is Illuminated
Jan 27
Waning Crescent
Jan 30
New
Feb 6
First Quarter
Feb 14
Full
Feb 22
Last Quarter

Hourly Weather History & Observations

Time (PST) Temp. Dew Point Humidity Pressure Visibility Wind Dir Wind Speed Gust Speed Precip Events Conditions
12:53 AM 55.9 °F 46.9 °F 72% 30.05 in 10.0 mi Calm Calm - 0.00 in   Overcast
1:53 AM 55.0 °F 46.9 °F 74% 30.04 in 10.0 mi Calm Calm - N/A   Scattered Clouds
2:53 AM 53.1 °F 46.9 °F 80% 30.01 in 10.0 mi Calm Calm - 0.00 in   Partly Cloudy
3:53 AM 52.0 °F 46.0 °F 80% 30.00 in 10.0 mi Calm Calm - N/A   Clear
4:53 AM 51.1 °F 46.0 °F 83% 29.99 in 10.0 mi ENE 3.5 mph - N/A   Clear
5:53 AM 48.9 °F 45.0 °F 86% 30.02 in 10.0 mi Calm Calm - N/A   Clear
6:53 AM 48.0 °F 44.1 °F 86% 30.04 in 10.0 mi SE 3.5 mph - N/A   Clear
7:53 AM 51.1 °F 44.1 °F 77% 30.07 in 10.0 mi Calm Calm - N/A   Clear
8:53 AM 55.9 °F 45.0 °F 67% 30.09 in 8.0 mi Calm Calm - N/A   Clear
9:53 AM 60.1 °F 44.1 °F 55% 30.08 in 10.0 mi Calm Calm - N/A   Clear
10:53 AM 62.1 °F 45.0 °F 53% 30.06 in 9.0 mi Calm Calm - N/A   Clear
11:53 AM 64.9 °F 45.0 °F 48% 30.04 in 10.0 mi Variable 4.6 mph - N/A   Clear
12:53 PM 66.9 °F 45.0 °F 45% 30.01 in 10.0 mi Variable 3.5 mph - N/A   Clear
1:53 PM 69.1 °F 45.0 °F 42% 29.98 in 10.0 mi Calm Calm - N/A   Clear
2:53 PM 71.1 °F 44.1 °F 38% 29.96 in 10.0 mi NW 4.6 mph - N/A   Clear
3:53 PM 70.0 °F 44.1 °F 39% 29.97 in 10.0 mi West 3.5 mph - N/A   Clear
4:53 PM 66.0 °F 48.9 °F 54% 29.99 in 10.0 mi West 6.9 mph - N/A   Mostly Cloudy
5:53 PM 63.0 °F 50.0 °F 63% 30.01 in 10.0 mi Calm Calm - N/A   Mostly Cloudy
6:53 PM 61.0 °F 50.0 °F 67% 30.03 in 10.0 mi Variable 3.5 mph - N/A   Mostly Cloudy
7:53 PM 59.0 °F 50.0 °F 72% 30.04 in 10.0 mi West 3.5 mph - N/A   Clear
8:53 PM 57.0 °F 48.9 °F 74% 30.05 in 10.0 mi SE 3.5 mph - N/A   Clear
9:53 PM 55.0 °F 48.9 °F 80% 30.06 in 10.0 mi Calm Calm - N/A   Clear
10:53 PM 52.0 °F 46.9 °F 83% 30.06 in 10.0 mi Calm Calm - N/A   Clear
11:53 PM 52.0 °F 48.0 °F 86% 30.06 in 10.0 mi Calm Calm - N/A   Clear